User: anonymous
Location: Unspecified
(0.0000°N, 0.0000°E)
Time: 22:19:45
(UTC+00:00)
Language:

Aussat K3 - Orbit

View from above orbital plane
View from above orbital plane
View from above satellite
View from above satellite

Ground track
Ground track

The orbit data is extracted from the following two-line orbital elements,

1 18350U 87078A   14273.58000628  .00000033  00000-0  00000+0 0  1732
2 18350 013.8179 028.7059 0004034 229.3048 203.8458 00.98904427 98211
Epoch (UTC): 30 September 2014 13:55:12
Eccentricity: 0.0004034
inclination: 13.8179°
perigee height: 36157 km
apogee height: 36191 km
right ascension of ascending node: 28.7059°
argument of perigee: 229.3048°
revolutions per day: 0.98904427
mean anomaly at epoch: 203.8458°
orbit number at epoch: 9821

The dashed part of the orbit path shows where the satellite is in the earth's shadow,  

DLR